BEIDOU-3 M24 (C46)

Last updated on Oct. 29, 2020, 5:53 a.m. UTC

1 44543U 19061B   20301.70033910 -.00000055  00000-0  10000-3 0  9991
2 44543  54.8079 252.4264 0007099 303.8635  53.0373  1.86231765  7459
UTC
Height (km)
Latitude
Longitude
Inclination
Orbital Period
UTC large
Height (km)
Speed (km/s)
/
Latitude / Longitude
Inclination (degrees)
Orbital Period (minutes)
Azimuth
Elevation
Range (km)
Doppler Factor
iOS Compass Heading
iOS Angle

Next 30 passes for location: Hong Kong

Rise time Rise Azimuth (degrees) Set time Set Azimuth (degrees) Duration Max altitude (degrees)

No matching passes for this satellites